Other Public Products
Issued by NWS Grand Forks, ND

Home | Current Version | Previous Version | Graphics & Text | Print | Product List | Glossary On
Versions: 1 2 3 4 5 6 7 8 9 10 11 12 13 14 15 16 17 18 19 20 21 22 23 24 25 26 27 28 29 30 31 32 33 34 35 36 37 38 39 40 41 42 43 44 45 46 47 48 49 50
000
FPUS83 KFGF 251931
OPUFGF
PRAIRIE TO PINES WEATHER ROUNDUP
NATIONAL WEATHER SERVICE EASTERN NORTH DAKOTA/GRAND FORKS ND
200 PM CDT WED MAY 25 2016

 **SATELLITE DATA USED TO AUGMENT SKY COVER AT AUTOMATED STATIONS**
 *****  WEATHER ACROSS EASTERN NORTH DAKOTA  *****

CITY           SKY/WX    TMP DP  RH WIND       PRES   REMARKS
GRAND FORKS    LGT RAIN  62  59  90 NW8       29.79S
GRAND FORKS AF LGT RAIN  61  60  97 NW8       29.79F
GRAND CITY NWS   N/A     61 N/A N/A N7          N/A
BUXTON           N/A     63  63  99 NE7         N/A
DEVILS LAKE    RAIN      58  56  93 N9        29.82F
FARGO          HVY RAIN  64  61  90 S10       29.71S FOG
WAHPETON ARPT  CLOUDY    68  61  77 S18       29.70S
$$

 *****  WEATHER ACROSS CENTRAL AND WESTERN NORTH DAKOTA  *****

CITY           SKY/WX    TMP DP  RH WIND       PRES   REMARKS
JAMESTOWN      NOT AVBL
BISMARCK       CLOUDY    65  58  78 E9        29.78F
MINOT          CLOUDY    63  56  78 E6        29.79F
MINOT AFB      PTSUNNY   61  57  88 E10       29.78S
GARRISON         N/A     64  57  78 SE9       29.77F
WILLISTON      LGT RAIN  53  49  86 N15G26    29.84R
DICKINSON      CLOUDY    55  49  80 NW17      29.80R
HETTINGER      CLOUDY    63  49  60 W21G30    29.83R
$$

 *****  OTHER OBSERVATIONS NORTHEAST NORTH DAKOTA  *****

CITY           SKY/WX    TMP DP  RH WIND       PRES   REMARKS
WALHALLA       LGT RAIN  59  59 100 SE9       29.85S
LANGDON        DRIZZLE   59  59 100 E7        29.83R
CAVALIER       LGT RAIN  59  59 100 SE3       29.86R
GRAFTON        HVY RAIN  59  59 100 NE13G18   29.83F
CANDO          RAIN      57  57 100 NE10G18   29.86F
FORT TOTTEN      N/A     57  57 100 N5        29.95S
ROLLA          HVY RAIN  55  55 100 N10       29.86S
RUGBY          LGT RAIN  57  57 100 E10       29.82R
 ***** THE ABOVE OBSERVATIONS ARE NON NWS ARE NOT QUALITY
        CONTROLLED AND MAY MIS-REPORT RAIN FOR SNOW...
$$

 *****  OTHER OBSERVATIONS SOUTHEAST NORTH DAKOTA *****

CITY           SKY/WX    TMP DP  RH WIND       PRES   REMARKS
COOPERSTOWN    NOT AVBL
VALLEY CITY    LGT RAIN  59  59 100 N16G22    29.78R
OAKES            N/A    N/A N/A N/A MISG        N/A
GWINNER        CLOUDY    66  63  88 NW18      29.73R
SHEYENNE NWR     N/A     68  63  84 S7        29.95S
BUFFALO          N/A     59  57  92 N13         N/A
WYNDMERE         N/A     70  64  83 S12         N/A
 ***** THE ABOVE OBSERVATIONS ARE NON NWS ARE NOT QUALITY
       CONTROLLED AND MAY MIS-REPORT RAIN FOR SNOW...
$$

  *****  WEATHER ACROSS NORTHERN MINNESOTA  *****

CITY           SKY/WX    TMP DP  RH WIND       PRES   REMARKS
FLAG ISLAND    LGT RAIN  61  55  82 S7        29.93S
WARROAD        DRIZZLE   57  54  88 E18       29.89F
ROSEAU         CLOUDY    59  54  82 E14       29.85F
HALLOCK        RAIN      61  57  88 E12       29.84S
THF RVR FALLS  CLOUDY    63  57  82 SE15      29.84S
HALSTAD        NOT AVBL
FOSSTON        RAIN      61  57  88 E9        29.81F
BAUDETTE       CLOUDY    60  57  89 NE7       29.91F
WASKISH        PTSUNNY   66  57  72 E10G16    29.87F
CROOKSTON      RAIN      61  61 100 SE8       29.80F
$$
  *****  WEATHER ACROSS CENTRAL AND WEST MINNESOTA  *****

CITY           SKY/WX    TMP DP  RH WIND       PRES   REMARKS
BEMIDJI        LGT RAIN  62  58  88 E14       29.85F
PARK RAPIDS    LGT RAIN  62  57  83 E13       29.81F
WADENA         RAIN      61  59  94 E14G21    29.78F
DETROIT LAKES  RAIN      61  57  88 SE17G24   29.76F
MOORHEAD       LGT RAIN  63  61  94 SE10G20   29.71F
FERGUS FALLS   CLOUDY    64  63  94 SE15      29.70R
ELBOW LAKE     MOCLDY    70  61  73 SW21G30   29.74R
MORRIS MN      SUNNY     77  61  57 SW23G30   29.74S
STAPLES        RAIN      61  59  94 E8        29.81F
WHEATON        SUNNY     75  63  64 SW20G26   29.74R
$$
  *****  WEATHER ELSEWHERE ACROSS MINNESOTA  *****

CITY           SKY/WX    TMP DP  RH WIND       PRES   REMARKS
DULUTH         CLOUDY    52  49  89 E14G23    29.96F FOG
INTRNTL FALLS  CLOUDY    64  54  69 E14       29.94F
ELY            CLOUDY    64  48  55 E9        29.99S
CLOQUET        CLOUDY    52  48  87 E13G20    29.94F FOG
BRAINERD       CLOUDY    60  59  96 E9G17     29.86F
HIBBING        CLOUDY    64  52  64 E13G23    29.93F
ALEXANDRIA     CLOUDY    67  61  81 SE21G29   29.79F
SAINT CLOUD    PTSUNNY   66  63  90 E8        29.84F
MINNEAPOLIS    CLOUDY    73  66  78 SE13      29.83F
$$

  *****  WEATHER ACROSS SOUTH DAKOTA  *****

CITY           SKY/WX    TMP DP  RH WIND       PRES   REMARKS
SIOUX FALLS    PTSUNNY   74  61  63 SW14G20   29.82F
BROOKINGS      PTSUNNY   70  60  70 SW14      29.81S
WATERTOWN      PTSUNNY   72  60  66 SW18G24   29.78R
HURON          PTSUNNY   73  59  61 W10       29.78R
SISSETON         N/A     74  58  57 W23G31    29.71R
ABERDEEN       PTSUNNY   73  60  63 W8        29.73F
MITCHELL       MOSUNNY   74  62  66 S10       29.80F
PIERRE         SUNNY     73  57  57 W12       29.77S
MOBRIDGE       SUNNY     71  55  56 VRB5      29.74S
RAPID CITY     MOSUNNY   62  49  62 N23G29    29.85R
$$

  *****  SOME WEATHER IN NEARBY STATES *****

CITY           SKY/WX    TMP DP  RH WIND       PRES   REMARKS
GLASGOW MT     PTSUNNY   63  43  48 S5        29.85F
GREAT FALLS MT PTSUNNY   63  37  38 VRB6      29.87F
CHEYENNE WY    PTSUNNY   63  35  35 S18G25    30.00F
SCOTTSBLUFF NE PTSUNNY   70  36  28 W23       29.93S
OMAHA NE       MOSUNNY   79  62  56 S10       29.84R
DES MOINES IA  CLOUDY    75  62  64 S12       29.85F
DAVENPORT IA   CLOUDY    83  66  56 S17       29.91F
CHICAGO IL     PTSUNNY   84  62  47 SE9       29.94F
EAU CLAIRE WI  CLOUDY    78  60  53 SE8       29.85F
LA CROSSE WI   LGT RAIN  72  68  87 SE6       29.85F
$$

  *****  SOME NATIONAL WEATHER *****

CITY           SKY/WX    TMP DP  RH WIND       PRES   REMARKS
LA GUARDIA NY  MOSUNNY   89  46  22 W13       30.03S
RALEIGH NC     MOSUNNY   87  58  37 W12       30.18F
ATLANTA GA     MOSUNNY   85  54  34 S9        30.22F
NEW ORLEANS LA PTSUNNY   89  71  55 S12       30.12F HX  95
OKLAHOMA CITY  PTSUNNY   86  72  62 S17G29    29.88F HX  92
ALBUQUERQUE NM MOSUNNY   73  14  10 VRB5      30.11F
SALT LAKE CITY PTSUNNY   64  39  39 W8        30.02F
LOS ANGELES CA PTSUNNY   64  51  62 W15       30.11R
BOISE ID       SUNNY     67  37  33 NW16      30.01F
SEATTLE WA     PTSUNNY   61  50  67 SW9       30.17R
$$

*** WEATHER ACROSS MANITOBA...SASKATCHEWAN AND ONTARIO ***
                ***ONTARIO***

CITY           SKY/WX    TMP DP  RH WIND       PRES   REMARKS
GERALDTON      PTSUNNY   70  41  35 E8G18     30.09F
THUNDER BAY    PTSUNNY   55  46  71 E8        30.09F
SIOUX LOOKOUT  CLOUDY    61  54  77 SE6       30.03F
TORONTO        PTSUNNY   82  61  47 SW17G23   30.02F
BIG TROUT LK   CLOUDY    55  48  76 SE10      30.07R
PICKLE LAKE    PTSUNNY   66  50  55 S13G22    30.04F
DRYDEN         MOSUNNY   64  54  68 E9        29.99F
KENORA         CLOUDY    63  54  72 SE12      29.97S
$$
                *** MANITOBA***

CITY           SKY/WX    TMP DP  RH WIND       PRES   REMARKS
BRANDON        LGT RAIN  59  57  94 NE7       29.87F
DAUPHIN        MOSUNNY   66  55  68 NE6       29.88F
ISLAND LAKE    MOSUNNY   66  50  55 E5        29.96F
PILOT MOUND      N/A     57  55  94 N9          N/A
THE PAS        MOSUNNY   63  48  59 N9        29.92F
THOMPSON       MOSUNNY   64  37  36 E6        29.94F
WINNIPEG       CLOUDY    73  50  43 SE21G28   29.84R
LYNN LAKE      MOSUNNY   66  46  48 S10G17    29.89F
CHURCHILL      LGT RAIN  36  34  93 E20       30.03F
GILLAM         MOSUNNY   61  39  44 S6        30.00F
$$
                ***SASKATCHEWAN***

CITY           SKY/WX    TMP DP  RH WIND       PRES   REMARKS
ESTEVAN        LGT RAIN  55  54  94 E6        29.83S
KINDERSLEY     CLOUDY    54  46  76 N8        29.90S
LLOYDMINSTER   PTSUNNY   64  45  48 CALM      29.89F
PRINCE ALBERT  CLOUDY    54  48  82 E3        29.93F
REGINA         CLOUDY    54  48  82 NW8       29.89R
YORKTON        LGT RAIN  66  52  59 NE8       29.85F   C1F1C2F2C3F3C4F4C5F5C6F6C7F7C8F8C9F9CaFaCbFbCcFcCdFdCe!


USA.gov is the U.S. government's official web portal to all federal, state and local government web resources and services.